[[{"header":{"parameterUnit":"m.s-1","parameterCategory":1,"la1":30.2991,"la2":30.254,"lo1":-89.0895,"lo2":-89.0444,"dy":0.0017,"dx":0.0017,"nx":28,"ny":28,"refTime":"2025-11-10T03:00:00:Z","depth":0,"parameterNumber":2,"parameterNumberName":"U-component_of_WINDS"},"data":[0,0,0,0,0,0,0,0,0,0,0,0,0,0,0,0,0,0,0,0,0,0,0,0,0,0,0,0,0,0,0,0,0,0,0,0,0,0,0,0,0,0,0,0,0,0,0,0,0,0,0,0,0,0,0,0,0,0,1.1367,1.1367,0,1.1412,1.1413,1.1413,1.1419,1.1419,1.1419,1.1418,1.1462,1.1464,1.1465,0,0,0,0,0,0,0,0,0,0,0,0,0,1.1281,1.1282,1.1367,1.1367,1.1368,1.1412,1.1413,1.1413,1.1419,1.1419,1.1418,1.1418,1.1462,1.1464,1.1465,0,0,0,0,0,0,0,0,0,0,0,0,0,1.1321,1.1283,1.1366,1.1376,1.1378,1.1412,1.1413,1.1414,1.142,1.1419,1.1418,1.1418,1.1461,1.1463,1.1466,1.1493,0,0,1.1473,1.1474,0,0,0,0,0,0,0,0,1.1319,1.1324,1.1374,1.1376,1.1377,1.141,1.1399,1.144,1.142,1.1404,1.1418,1.1417,1.1445,1.1449,1.1459,1.1495,1.1497,1.1473,1.1475,1.1476,1.1476,0,0,0,0,0,0,0,1.1316,1.1322,1.1385,1.1375,1.1377,1.1377,1.1382,1.1407,1.1427,1.1405,1.1405,1.1411,1.1446,1.1456,1.146,1.1498,1.1473,1.1475,1.1477,1.1478,1.1556,1.1557,0,0,0,0,0,0,1.1312,1.132,1.1383,1.1386,1.1346,1.1379,1.1385,1.14,1.1427,1.1431,1.1411,1.1411,1.1453,1.1457,1.1461,1.1493,1.1476,1.1478,1.1479,1.1556,1.1556,1.1557,0,0,0,0,0,0,1.131,1.1318,1.1381,1.1353,1.1361,1.1381,1.1398,1.1401,1.1412,1.1432,1.1435,1.1419,1.1452,1.1458,1.1485,1.1495,1.1479,1.1481,1.1555,1.1556,1.1557,1.1559,0,0,0,0,0,0,1.1308,1.1317,1.1329,1.1353,1.1363,1.1405,1.1399,1.1402,1.1416,1.1416,1.144,1.1443,1.1452,1.1481,1.1487,1.1498,1.1483,1.1554,1.1555,1.1556,1.1558,1.156,1.1561,0,0,0,0,0,1.1305,1.1327,1.1329,1.1337,1.1378,1.1406,1.1411,1.1422,1.1417,1.1428,1.144,1.1442,1.1493,1.1484,1.149,1.1502,1.1553,1.1555,1.1556,1.1557,1.1559,1.1561,0,0,0,0,0,0,1.1302,1.1331,1.1333,1.1365,1.1383,1.1407,1.1421,1.1424,1.1444,1.1443,1.1455,1.146,1.1486,1.1497,1.1486,1.1529,1.1522,1.1525,1.1521,1.1523,1.1525,1.1521,1.1485,0,0,0,0,0,1.1305,1.1327,1.135,1.1375,1.1385,1.1401,1.1414,1.1421,1.144,1.1447,1.1462,1.1479,1.1499,1.1512,1.1531,1.156,1.1564,1.1571,1.1572,1.1574,1.1576,1.159,1.1593,1.1562,1.1562,1.1562,0,0,1.1312,1.133,1.1343,1.1375,1.139,1.1411,1.1408,1.143,1.1445,1.145,1.1476,1.1488,1.1508,1.1535,1.1547,1.1545,1.1585,1.1576,1.1577,1.1578,1.1592,1.1595,1.1597,1.1563,1.1563,1.1563,0,0,1.1334,1.1351,1.1373,1.1388,1.1411,1.1422,1.1427,1.145,1.1458,1.1485,1.1489,1.1506,1.154,1.1554,1.1565,1.1591,1.1593,1.1597,1.1606,1.1619,1.1622,1.1624,1.1632,1.1634,1.1599,1.1599,1.1599,0,1.134,1.1372,1.1384,1.1406,1.1419,1.1426,1.1447,1.1461,1.1488,1.1496,1.1493,1.1535,1.1549,1.1579,1.1585,1.1595,1.16,1.1594,1.1621,1.1623,1.1625,1.1632,1.1636,1.16,1.16,1.16,1.1599,0,1.1376,1.1398,1.1413,1.144,1.1455,1.1476,1.149,1.1504,1.1509,1.152,1.1545,1.1562,1.1585,1.1592,1.1598,1.1622,1.1619,1.1618,1.1612,1.1628,1.1635,1.1638,1.16,1.16,1.16,1.16,0,0,1.1398,1.1431,1.1436,1.1448,1.1473,1.1489,1.151,1.1532,1.1543,1.1561,1.1578,1.1606,1.1605,1.1618,1.1625,1.1637,1.1654,1.1634,1.1634,1.1636,1.168,1.168,1.1683,1.1655,1.1656,1.1657,1.1678,0,1.1422,1.1461,1.1472,1.1504,1.1523,1.1529,1.1547,1.1563,1.1574,1.159,1.1601,1.162,1.1618,1.1626,1.1638,1.1649,1.1663,1.1648,1.167,1.167,1.1664,1.1687,1.1688,1.1707,1.1681,1.1682,1.1682,0,1.1456,1.1475,1.1509,1.153,1.1539,1.1555,1.1575,1.1592,1.161,1.1616,1.163,1.1635,1.1656,1.1649,1.1676,1.1666,1.1675,1.1682,1.1683,1.1685,1.1676,1.1688,1.1714,1.1716,1.1687,1.1686,1.1686,0,1.1467,1.1501,1.1526,1.1535,1.1561,1.1572,1.1583,1.16,1.1613,1.163,1.1638,1.1657,1.1668,1.1682,1.1692,1.1686,1.1718,1.1712,1.1722,1.1722,1.1728,1.1727,1.1754,1.1736,1.1736,1.1736,1.1736,0,1.1492,1.1512,1.1531,1.1546,1.1568,1.1579,1.1601,1.1612,1.1627,1.1643,1.1649,1.1664,1.1676,1.1692,1.17,1.172,1.1725,1.173,1.1732,1.1729,1.1728,1.1735,1.1733,1.1737,1.1736,1.1736,1.1736,0,1.1507,1.1521,1.1548,1.157,1.1576,1.1591,1.1609,1.1623,1.1633,1.1653,1.1658,1.1674,1.1692,1.1704,1.1728,1.1733,1.1755,1.1757,1.1749,1.175,1.1759,1.1757,1.179,1.1794,1.1774,1.1774,1.1774,0,1.1522,1.1538,1.1561,1.1573,1.1584,1.1603,1.1615,1.1627,1.1639,1.166,1.1671,1.169,1.1706,1.1736,1.1749,1.1766,1.1768,1.1778,1.1771,1.1767,1.1766,1.1765,1.1766,1.1779,1.1779,1.1779,1.1779,0,1.1546,1.1552,1.157,1.159,1.1605,1.1621,1.1637,1.1646,1.166,1.1673,1.1693,1.1706,1.173,1.1748,1.1767,1.1777,1.178,1.1782,1.1785,1.1782,1.1776,1.1778,1.1751,1.1781,1.1781,1.178,1.178,1.178,1.1561,1.1574,1.1593,1.1612,1.1626,1.164,1.1654,1.1666,1.1683,1.1704,1.1709,1.1729,1.1746,1.1771,1.1781,1.1797,1.1795,1.18,1.1801,1.1801,1.1801,1.1775,1.18,1.18,1.18,1.18,1.18,0,1.1584,1.1596,1.1614,1.1636,1.1651,1.1654,1.1671,1.1683,1.1701,1.1716,1.1732,1.1754,1.1771,1.1785,1.1803,1.1812,1.1814,1.1817,1.1816,1.1818,1.1802,1.1797,1.1815,1.1815,1.1815,1.1815,1.1815,1.1815,1.1597,1.162,1.1628,1.1656,1.1668,1.1688,1.1698,1.1711,1.1723,1.1747,1.1762,1.1771,1.1786,1.1804,1.182,1.1824,1.183,1.1832,1.1835,1.182,1.1819,1.1817,1.1812,1.1833,1.1833,1.1849,1.1849,1.185]},{"header":{"parameterUnit":"m.s-1","parameterCategory":1,"la1":30.2991,"la2":30.254,"lo1":-89.0895,"lo2":-89.0444,"dy":0.0017,"dx":0.0017,"nx":28,"ny":28,"refTime":"2025-11-10T03:00:00:Z","depth":0,"parameterNumber":3,"parameterNumberName":"V-component_of_WINDS"},"data":[0,0,0,0,0,0,0,0,0,0,0,0,0,0,0,0,0,0,0,0,0,0,0,0,0,0,0,0,0,0,0,0,0,0,0,0,0,0,0,0,0,0,0,0,0,0,0,0,0,0,0,0,0,0,0,0,0,0,4.3864,4.3865,0,4.3876,4.3876,4.3876,4.381,4.3808,4.3806,4.3804,4.3815,4.3817,4.3819,0,0,0,0,0,0,0,0,0,0,0,0,0,4.3784,4.3786,4.3864,4.3865,4.3865,4.3876,4.3876,4.3876,4.381,4.3808,4.3806,4.3804,4.3814,4.3816,4.3819,0,0,0,0,0,0,0,0,0,0,0,0,0,4.3809,4.3786,4.3864,4.3833,4.3831,4.3876,4.3876,4.3876,4.3811,4.3808,4.3805,4.3803,4.3813,4.3816,4.3819,4.3894,0,0,4.3828,4.383,0,0,0,0,0,0,0,0,4.3808,4.3812,4.3838,4.3836,4.3833,4.3839,4.3851,4.3882,4.3812,4.3818,4.3804,4.3801,4.3825,4.3827,4.3835,4.3895,4.3895,4.3829,4.3831,4.3832,4.3833,0,0,0,0,0,0,0,4.3806,4.3811,4.3869,4.3838,4.3835,4.3818,4.3819,4.3857,4.3837,4.3818,4.3813,4.3815,4.3823,4.3832,4.3835,4.3895,4.3829,4.3831,4.3833,4.3834,4.4014,4.4017,0,0,0,0,0,0,4.3809,4.381,4.3868,4.3869,4.3813,4.3822,4.3822,4.384,4.3837,4.3833,4.3817,4.3812,4.3828,4.3831,4.3835,4.392,4.3832,4.3835,4.3836,4.4011,4.4014,4.4018,0,0,0,0,0,0,4.3807,4.3815,4.3868,4.3838,4.3844,4.3826,4.3846,4.3841,4.385,4.3837,4.3833,4.3831,4.3826,4.3831,4.3879,4.3919,4.3836,4.3839,4.4007,4.4012,4.4016,4.4093,0,0,0,0,0,0,4.3805,4.3815,4.3844,4.384,4.3846,4.3913,4.3849,4.3843,4.3856,4.3849,4.3848,4.3845,4.3824,4.3875,4.3882,4.3922,4.3841,4.4004,4.4009,4.4015,4.4086,4.4099,4.411,0,0,0,0,0,4.3803,4.3865,4.3845,4.3853,4.3882,4.3916,4.3919,4.3895,4.386,4.3888,4.3879,4.3845,4.3915,4.3881,4.3888,4.393,4.4001,4.4008,4.4014,4.4081,4.4097,4.411,0,0,0,0,0,0,4.3874,4.3864,4.3842,4.3905,4.3912,4.3905,4.3939,4.3912,4.3929,4.3921,4.389,4.389,4.3944,4.3942,4.3904,4.4001,4.3951,4.396,4.4,4.4014,4.4026,4.4024,4.3844,0,0,0,0,0,4.3897,4.3926,4.3916,4.3972,4.3977,4.3958,4.3972,4.3952,4.3958,4.396,4.3954,4.396,4.3983,4.3999,4.4019,4.4086,4.4084,4.4118,4.413,4.414,4.4147,4.418,4.4194,4.404,4.4039,4.4039,0,0,4.3945,4.3943,4.3964,4.3987,4.3989,4.4019,4.3961,4.3995,4.4016,4.3965,4.401,4.4006,4.4011,4.4068,4.4093,4.4068,4.4189,4.4148,4.4156,4.4158,4.4188,4.4203,4.4216,4.4044,4.4043,4.4042,0,0,4.4047,4.405,4.4096,4.41,4.4104,4.4091,4.4102,4.4099,4.4094,4.4139,4.4101,4.4125,4.4166,4.417,4.4178,4.428,4.4249,4.4288,4.4348,4.4381,4.4393,4.4403,4.4437,4.445,4.4295,4.4295,4.4295,0,4.4106,4.4149,4.4123,4.4159,4.4169,4.4125,4.417,4.4175,4.4186,4.4194,4.4166,4.4215,4.4215,4.4271,4.4296,4.4305,4.4315,4.4286,4.4393,4.4404,4.4413,4.4445,4.4458,4.43,4.4299,4.4299,4.4298,0,4.422,4.4251,4.4287,4.4299,4.4313,4.4354,4.4332,4.435,4.4329,4.4319,4.4364,4.4363,4.4381,4.4393,4.4374,4.4447,4.4431,4.4399,4.4348,4.4433,4.4462,4.4474,4.4306,4.4305,4.4303,4.4302,0,0,4.4367,4.4362,4.4376,4.4379,4.4381,4.4403,4.4442,4.4459,4.4474,4.4484,4.4513,4.4548,4.4518,4.4527,4.4507,4.4536,4.4614,4.45,4.45,4.4519,4.4691,4.4714,4.4728,4.4594,4.4596,4.4598,4.469,0,4.4464,4.4529,4.4505,4.4571,4.4597,4.4555,4.4588,4.4592,4.4583,4.4603,4.4593,4.4618,4.4578,4.4582,4.4609,4.4599,4.4647,4.4592,4.462,4.4621,4.4617,4.4744,4.4768,4.4855,4.4702,4.4704,4.4705,0,4.4587,4.46,4.4668,4.4663,4.4673,4.4703,4.4716,4.4737,4.474,4.4731,4.4741,4.4714,4.475,4.4701,4.4749,4.4712,4.4722,4.4719,4.4721,4.4721,4.4667,4.4745,4.4882,4.4894,4.4723,4.4722,4.4721,0,4.4683,4.4719,4.4763,4.4768,4.4764,4.4785,4.4784,4.4785,4.4796,4.4808,4.4815,4.4831,4.4839,4.4852,4.483,4.4797,4.488,4.483,4.4872,4.4873,4.489,4.4889,4.5029,4.4901,4.4901,4.4901,4.49,0,4.4793,4.4836,4.4806,4.4833,4.4879,4.4852,4.4898,4.4892,4.4893,4.4917,4.4882,4.4906,4.4877,4.4898,4.4881,4.4922,4.4927,4.4919,4.4914,4.4921,4.4922,4.4926,4.4918,4.4904,4.4903,4.4903,4.4902,0,4.4909,4.4891,4.4936,4.4928,4.4927,4.4961,4.4953,4.4978,4.4966,4.4997,4.5003,4.4985,4.5007,4.4987,4.5009,4.4998,4.5051,4.5039,4.505,4.5046,4.5088,4.5083,4.5233,4.525,4.5114,4.5115,4.5117,0,4.4979,4.501,4.5005,4.5019,4.502,4.5043,4.5054,4.5028,4.5041,4.5046,4.5069,4.5089,4.5103,4.514,4.5129,4.5145,4.513,4.5182,4.5133,4.5138,4.5128,4.5126,4.5127,4.5191,4.5193,4.5194,4.5195,0,4.5104,4.5093,4.5111,4.5125,4.5139,4.5149,4.5156,4.517,4.5142,4.5159,4.5181,4.5192,4.5213,4.5232,4.5244,4.5243,4.5214,4.5211,4.5221,4.5228,4.5232,4.5228,4.5075,4.5207,4.5206,4.5205,4.5205,4.5204,4.5197,4.5222,4.5222,4.5242,4.5244,4.5252,4.5273,4.5264,4.5282,4.5297,4.5281,4.5307,4.5308,4.5321,4.5323,4.5343,4.5321,4.5336,4.534,4.5343,4.5348,4.5231,4.5345,4.5345,4.5345,4.5344,4.5344,0,4.5318,4.5316,4.5335,4.5345,4.5361,4.5333,4.5339,4.5353,4.5377,4.538,4.5394,4.5419,4.5437,4.5426,4.5442,4.5459,4.5446,4.5464,4.5461,4.5461,4.5368,4.5357,4.5474,4.5474,4.5474,4.5474,4.5474,4.5474,4.5383,4.5423,4.5412,4.5453,4.545,4.5475,4.548,4.5486,4.5488,4.5517,4.5531,4.5525,4.5522,4.5536,4.5551,4.5548,4.5554,4.5576,4.5567,4.548,4.5468,4.5455,4.5444,4.5578,4.5578,4.5658,4.5659,4.5659]}]]